Location: Vlissingen
(51.4500°N, 3.5830°E)
Time: 03:56:12
(UTC+02:00)

Daily predictions for brighter satellites

Satellite Brightness Start Highest point End
(mag) Time Altitude Azimuth Time Altitude Azimuth Time Altitude Azimuth
Cosmos 1980 Rocket 4.0 00:04:51 10° NNW 00:08:22 25° NNE 00:08:22 25° NNE
ATLAS 3B R/B 4.2 00:15:14 10° NW 00:21:41 32° N 00:24:08 26° NE
SL-16 R/B 4.3 00:31:27 10° NNW 00:35:03 20° NNE 00:35:03 20° NNE
Cosmos 2322 Rocket 4.2 00:57:12 10° NNW 01:00:22 24° NNE 01:00:22 24° NNE
CENTAUR R/B 3.8 01:13:27 37° NW 01:14:32 39° NNW 01:21:29 10° NE
CZ-4C R/B 4.0 01:11:19 10° NW 01:17:05 33° NNE 01:18:32 31° NE
ATLAS 5 CENTAUR R/B 4.4 01:17:43 10° NW 01:24:15 19° NNE 01:26:44 10° NE
Cosmos 2360 Rocket 4.2 01:49:00 10° NNW 01:52:23 24° NNE 01:52:23 24° NNE
Cosmos 1980 Rocket 4.4 01:48:36 10° NNW 01:50:07 19° NNW 01:50:07 19° NNW
ATLAS 3B R/B 3.8 02:06:46 10° NW 02:11:20 39° NNW 02:11:20 39° NNW
SL-16 R/B 4.3 02:15:08 10° NNW 02:16:54 21° NNW 02:16:54 21° NNW
Cosmos 2322 Rocket 4.5 02:41:00 10° NNW 02:42:09 17° NNW 02:42:09 17° NNW
COSMOS 2428 4.3 02:44:45 10° NNW 02:49:17 32° NNE 02:49:17 32° NNE
SL-16 R/B 4.1 02:48:55 26° E 02:50:29 29° NE 02:55:46 10° N
Cosmos 2082 Rocket 3.8 03:00:17 30° N 03:00:17 30° N 03:03:29 10° NNE
CZ-4C R/B 3.8 03:00:02 10° NW 03:15:45 - SE 03:03:36 35° NNW
CENTAUR R/B 4.3 03:00:49 10° NW 03:07:08 33° N 03:14:05 10° ENE
ATLAS 5 CENTAUR R/B 3.7 03:05:57 25° NNW 03:08:19 34° NNE 03:13:50 10° E
USA 229 DEB 4.5 03:22:44 44° NNW 03:22:52 44° NNW 03:29:35 10° NE
USA 229 4.5 03:22:50 44° NNW 03:22:57 44° NNW 03:29:41 10° NE
NOSS 3-1 (C) 4.0 03:35:39 56° N 03:35:39 56° N 03:41:40 10° NE
Cosmos 2360 Rocket 4.3 03:32:45 10° NNW 03:34:06 18° NNW 03:34:06 18° NNW
NOSS 3-1 (A) 3.9 03:39:48 61° N 03:39:48 61° N 03:45:49 10° NE
Cosmos 2219 Rocket 3.5 03:33:36 10° NNW 03:38:55 38° NE 03:44:12 10° ESE
CZ-2D R/B 3.7 03:39:22 10° NE 03:43:48 27° E 03:44:01 27° E
ARIANE 5 R/B 4.0 03:39:41 10° NNE 03:43:48 31° E 03:43:48 31° E
Cosmos 1833 Rocket 4.3 03:53:22 25° NNW 03:53:22 25° NNW 03:57:25 10° NNE
ATLAS 2AS CENTAUR R/B 2.9 03:54:44 72° SSE 03:55:12 74° SE 04:03:21 10° NE
Okean O Rocket 4.4 04:04:18 10° ENE 04:06:16 13° E 04:08:14 10° ESE
Nadezhda 3 Rocket 4.3 04:06:57 57° SE 04:07:42 61° E 04:13:53 10° NNE
Cosmos 1238 Rocket 4.0 04:08:22 82° ESE 04:08:25 82° E 04:15:14 10° NNE
Resurs 1-4 Rocket 2.8 04:09:15 10° NNE 04:14:23 47° E 04:14:47 46° ESE
Cosmos 2333 Rocket 2.9 04:08:56 10° NNW 04:14:33 51° NE 04:20:06 10° SE
NOSS 3-2 (A) 3.9 04:12:30 10° NW 04:19:47 80° NE 04:27:44 10° SE
BREEZE-M DEB (TANK) 3.6 04:25:07 61° SSE 04:25:07 61° SSE 04:33:41 10° ESE
NOSS 2-3 (E) 4.2 04:25:09 68° ESE 04:25:09 68° ESE 04:30:49 10° NE
GEOS 3 Rocket 3.9 04:25:39 10° NE 04:30:25 56° NNW 04:30:25 56° NNW
SL-16 R/B 2.5 04:34:02 67° W 04:34:02 67° W 04:39:58 10° NNW
Lacrosse 5 rocket 2.6 04:34:34 39° ESE 04:34:34 39° ESE 04:38:01 10° ENE
COSMOS 2428 4.2 04:28:54 10° NW 04:31:12 25° NW 04:31:12 25° NW
IRS-1D 3.6 04:30:33 10° NNE 04:35:57 78° ESE 04:36:13 76° SE
IRAS Rocket 4.1 04:31:17 10° NNE 04:36:52 83° ESE 04:37:15 77° SSE
Cosmos 968 Rocket 4.0 04:36:57 48° SE 04:37:36 51° ESE 04:42:35 10° NNE
ERS-2 3.6 04:35:31 10° NNE 04:37:52 36° NE 04:37:52 36° NE
Meteor 2-14 Rocket 4.3 04:33:06 10° N 04:39:12 87° W 04:40:28 59° S
Meteor 1-12 Rocket 4.2 04:35:23 10° NNW 04:41:24 87° W 04:42:37 59° S
Cosmos 2237 Rocket 2.5 04:37:10 10° NNW 04:42:48 64° NE 04:48:24 10° SE
Cosmos 923 Rocket 4.4 04:37:31 10° NNW 04:42:52 65° ENE 04:48:11 10° SE
Cosmos 2082 Rocket 4.3 04:42:08 13° NW 04:43:50 15° NNW 04:46:57 10° N
Spot 4 Rocket 4.1 04:40:16 10° N 04:45:03 65° NW 04:45:03 65° NW
Cosmos 1821 Rocket 3.9 04:42:51 10° NNW 04:49:14 78° W 04:51:18 46° S
NOSS 2-3 (C) 3.9 04:52:57 73° WSW 04:53:28 83° NW 04:59:38 10° NE
Cosmos 1934 Rocket 3.9 04:47:22 10° N 04:53:44 86° W 04:57:05 30° S
ATLAS 5 CENTAUR R/B 2.3 04:47:53 10° NW 04:53:44 86° NE 05:00:08 10° SE
Cosmos 1605 Rocket 4.1 04:48:06 10° N 04:54:14 72° ENE 05:00:25 10° SSE
Cosmos 1980 3.7 04:50:31 10° NNW 04:56:14 83° ENE 05:01:56 10° SSE
NOSS 3-2 (C) 3.8 04:49:35 10° NW 04:56:55 84° SW 05:04:55 10° SE
Gbstr 26 Del rocket 4.5 04:57:45 47° SW 04:57:57 47° SW 05:05:27 10° SE
NOSS 0 Rocket 3.8 04:52:40 10° NNW 04:58:56 80° WSW 05:05:10 10° SSE
CENTAUR R/B 3.7 04:52:11 10° NW 04:59:26 53° NNE 05:07:24 10° ESE
CZ-2D R/B 3.8 04:55:48 10° NNE 04:59:49 58° E 05:00:07 56° ESE
Cosmos 2219 3.1 04:59:27 59° SSW 05:00:35 87° ESE 05:06:15 10° NNE
SL-16 R/B 3.2 04:55:49 10° NNW 05:01:18 46° NE 05:06:46 10° ESE
Cosmos 773 Rocket 3.8 04:57:58 10° NNW 05:03:14 72° WSW 05:04:53 43° S
Meteor 2-21 Rocket 4.4 04:58:27 10° NNW 05:04:19 54° W 05:04:48 52° WSW
Meteor 1-18 Rocket 4.2 05:04:21 46° SSW 05:06:14 86° WNW 05:12:04 10° NNE
EXPRESS MD2 4.2 05:09:10 33° ESE 05:09:10 33° ESE 05:11:53 10° ESE
ADEOS II 4.2 05:09:27 10° NE 05:13:46 25° E 05:18:02 10° SE
MOS 1-B 4.3 05:08:23 10° NNE 05:14:13 87° ESE 05:17:03 32° SSW
ADEOS 4.2 05:13:10 10° N 05:17:58 37° WNW 05:18:12 37° WNW
NOSS 2-3 (D) 4.2 05:17:30 48° W 05:18:50 64° NW 05:25:00 10° NE
Cosmos 2227 Rocket 3.2 05:15:58 14° S 05:20:26 42° ESE 05:25:45 10° NE
Cosmos 2219 Rocket 2.3 05:17:34 10° NW 05:23:03 49° WSW 05:28:30 10° S
ARIANE 5 R/B 2.9 05:18:41 10° N 05:23:32 44° WNW 05:24:08 42° W
Cosmos 1777 Rocket 4.2 05:21:04 30° S 05:23:39 71° ESE 05:28:54 10° NNE
CZ-2D R/B 2.2 05:19:05 10° N 05:24:11 54° WNW 05:25:20 44° WSW
UNKNOWN OBJECT B 2.8 05:20:45 10° N 05:24:38 60° WNW 05:24:38 60° WNW
NOSS 3-4 (A) 4.4 05:21:10 18° S 05:25:36 46° ESE 05:31:51 10° NE
NOSS 3-4 (C) 4.4 05:21:14 18° S 05:25:43 46° ESE 05:31:57 10° NE
Cosmos 1500 4.2 05:22:12 10° NNW 05:24:39 34° NW 05:24:39 34° NW
Uosat 12 SS-18 rocket 4.1 05:26:39 53° W 05:27:16 60° NW 05:31:35 10° NE
Cosmos 2084 3.8 05:26:48 40° SSE 05:27:38 48° SE 05:31:20 10° NE
Cosmos 2297 Rocket 3.5 05:24:58 10° S 05:30:06 37° ESE 05:35:16 10° NE
Cosmos 2100 Rocket 4.5 05:24:48 10° N 05:30:59 63° ENE 05:37:11 10° SSE
Lacrosse 5 3.3 05:31:58 17° S 05:35:04 31° SE 05:39:29 10° ENE
Okean 1 3.5 05:35:43 49° W 05:35:51 49° WNW 05:39:48 10° N
Cosmos 2112 Rocket 3.9 05:31:00 10° NNW 05:36:21 75° WSW 05:41:36 10° SSE
Cosmos 1743 2.5 05:32:47 10° NNW 05:36:38 73° W 05:38:33 27° S
Cosmos 1346 Rocket 4.4 05:36:11 10° SSE 05:39:48 35° E 05:43:29 10° NNE
Cosmos 1680 Rocket 3.5 05:36:09 10° NNW 05:41:23 60° WSW 05:46:34 10° S
Okean O Rocket 1.5 05:38:52 10° NNE 05:43:19 88° WNW 05:46:10 22° SSW
PAYLOAD B 4.3 05:40:01 10° NNE 05:45:34 80° ESE 05:51:05 10° SSW
ATLAS 2AS CENTAUR R/B 3.6 05:42:11 24° W 05:46:50 49° NNW 05:54:45 10° NE
PSLV R/B 3.8 05:43:03 10° N 05:47:08 74° WNW 05:49:17 27° SSW
Cosmos 1025 Rocket 3.2 05:45:57 10° S 05:50:17 75° E 05:54:37 10° NNE
Cosmos 1461 3.4 05:49:15 35° W 05:50:40 49° NW 05:54:50 10° NE
Cosmos 1812 3.8 05:51:12 27° WNW 05:51:12 27° WNW 05:54:21 10° N
ASTRO F (AKARI) 4.2 05:48:02 10° SSE 05:51:11 89° W 05:54:29 10° NNW
Cosmos 292 Rocket 3.7 05:46:24 10° NNW 05:51:18 84° WSW 05:56:10 10° SSE
CZ-2C R/B 3.9 05:48:09 11° S 05:52:26 45° W 05:56:56 10° NNW
IRS-1C Rocket 4.0 05:48:39 10° NNE 05:53:57 77° WNW 05:58:41 13° SSW
Resurs 1-4 Rocket 2.9 05:49:23 10° N 05:54:06 33° WNW 05:55:51 26° W
Cosmos 1606 Rocket 3.4 05:50:36 10° NNW 05:55:01 75° W 05:59:22 10° S
MOZ.5/SAFIR/RUBIN 5/SL-8 4.4 05:55:02 25° SW 05:56:55 35° W 06:01:17 10° NNW
CZ-4B R/B 3.0 05:53:21 10° NNE 05:57:40 84° WNW 06:02:00 11° SSW
Cosmos 2333 Rocket 2.7 05:53:32 10° NW 05:58:40 35° WSW 06:03:44 10° S
Meteor 2-8 Rocket 4.5 05:53:36 14° SSW 05:58:57 62° WNW 06:05:03 10° N
Cosmos 2082 3.9 05:54:02 11° SSW 05:59:21 73° ESE 06:04:59 10° NNE
Cosmos 2344 3.8 05:56:38 20° SW 06:02:32 82° NW 06:12:09 10° NE
BREEZE M DEB (TANK) 3.3 06:03:22 26° SW 06:05:12 56° SSE 06:14:08 10° E
Cosmos 1726 Rocket 3.5 06:02:09 10° NNW 06:06:34 68° W 06:10:54 10° S
Cosmos 2016 Rocket 4.2 06:02:05 10° N 06:08:30 78° E 06:14:48 10° SSE
NOSS 3-2 (A) 4.5 06:03:48 10° NW 06:10:20 34° WSW 06:17:17 10° S
Meteor 1-19 Rocket 4.1 06:04:57 10° SSW 06:10:37 76° WNW 06:16:15 10° N
Cosmos 1727 Rocket 4.1 06:05:12 10° SSW 06:11:23 60° WNW 06:17:39 10° N
Thor Agena Rocket 3.7 06:06:36 10° S 06:11:47 54° W 06:17:00 10° NNW
ERS-2 4.0 06:10:19 10° NNW 06:12:34 16° WNW 06:12:41 16° WNW
Lacrosse 5 rocket 1.8 06:10:18 23° W 06:12:59 60° NNW 06:17:22 10° ENE
Okean 1-7 Rocket 4.1 06:11:45 20° SW 06:14:18 39° WNW 06:18:28 10° N
Cosmos 2173 Rocket 3.9 06:08:25 10° NNW 06:14:30 75° W 06:20:36 10° S
Meteor 1-31 Rocket 4.2 06:12:42 10° NNE 06:16:24 40° E 06:20:06 10° SSE
Okean 2 3.4 06:14:10 10° S 06:18:20 84° E 06:22:29 10° NNE
SL-16 R/B 4.1 06:19:08 13° WNW 06:19:08 13° WNW 06:21:30 10° NW
Tiangong 1 3.5 06:17:30 11° SSW 06:18:53 13° SSE 06:20:28 10° SE
Cosmos 968 Rocket 4.4 06:16:59 20° W 06:19:40 31° NW 06:24:13 10° N
Cosmos 2098 Rocket 2.8 06:16:55 10° N 06:20:23 79° ENE 06:24:43 10° SSE
CZ-4B R/B 3.2 06:16:33 10° N 06:21:49 60° WNW 06:27:11 10° SSW
Cosmos 1892 Rocket 3.6 06:17:23 10° S 06:21:53 85° WNW 06:26:24 10° N
Cosmos 1459 Rocket 4.0 06:17:59 10° NNW 06:24:18 64° W 06:30:33 10° S
PSLV R/B 3.5 06:21:26 10° NNE 06:25:50 78° WNW 06:30:08 10° SSW
Cosmos 2237 Rocket 3.0 06:21:51 10° NW 06:26:27 26° WSW 06:31:01 10° SSW
Cosmos 220 Rocket 3.9 06:25:28 10° SW 06:29:40 65° WNW 06:33:53 10° NNE
Aureole 2 Rocket 2.4 06:26:29 10° NNW 06:30:10 63° WSW 06:33:28 10° SSE
Meteor 2-4 Rocket 3.8 06:25:01 10° SSW 06:30:51 72° WNW 06:36:50 10° N
Meteor 1-23 Rocket 4.2 06:26:03 10° SSW 06:31:40 75° WNW 06:37:25 10° N
Cosmos 1174 3.1 06:34:52 10° NW 06:37:52 87° NE 06:40:59 10° SE
ATLAS 5 CENTAUR R/B 3.3 06:33:13 10° WNW 06:38:02 25° WSW 06:43:06 10° SSW
Cosmos 1812 Rocket 4.0 06:34:56 10° N 06:39:22 68° ENE 06:43:48 10° SSE
SeaSat 1 2.9 06:34:42 10° SE 06:39:35 66° NE 06:44:30 10° NNW
Cosmos 2228 3.2 06:38:10 10° NNW 06:42:29 53° W 06:46:45 10° S
Okean-O 2.6 06:39:53 10° N 06:44:18 66° WNW 06:48:42 10° SSW
SL-16 R/B 2.6 06:40:08 10° NW 06:45:23 39° WSW 06:50:37 10° S
Cosmos 2219 4.5 06:41:23 12° W 06:45:28 25° NW 06:50:04 10° NNE
Cosmos 1666 3.7 06:44:12 10° NNW 06:47:25 25° W 06:50:38 10° SW
CENTAUR R/B 3.1 06:42:59 10° NW 06:50:32 63° SW 06:58:39 10° SSE
Cosmos 1515 4.3 06:46:55 10° S 06:50:42 61° E 06:54:29 10° NNE
ADEOS Rocket 3.5 06:45:26 10° N 06:52:40 56° WNW 06:59:15 10° SW
Cosmos 1898 Rocket 3.6 06:48:13 10° SSW 06:53:34 90° N 06:58:53 10° NNE
ADEOS II 2.2 06:48:41 10° N 06:53:52 59° WNW 06:59:02 10° SSW
Cosmos 2058 Rocket 3.8 06:50:11 10° NNW 06:54:02 31° W 06:57:51 10° SSW
MOS 1 Rocket 3.3 06:50:30 10° NNE 06:55:10 80° WNW 07:00:07 10° SSW
COBE Rocket 3.8 06:51:35 10° N 06:56:28 78° WNW 07:01:12 10° SSW
COS B Rocket 3.9 06:58:30 10° WSW 06:59:54 14° W 07:01:21 10° NW
NOAA 6 4.2 06:56:39 10° NNE 07:01:53 84° ESE 07:07:06 10° SSW
USA 129 3.3 07:01:34 10° SW 07:02:41 14° W 07:03:46 10° WNW
CZ-2D R/B 4.0 07:01:26 10° NNW 07:03:12 12° NW 07:04:58 10° WNW
RESURS DK-1 2.7 06:59:47 10° SW 07:03:48 48° NW 07:07:50 10° NNE
Cosmos 2227 Rocket 2.7 06:59:09 10° WSW 07:04:32 43° NW 07:09:57 10° NNE
Meteor 2-15 4.4 06:59:26 10° SSW 07:05:27 68° WNW 07:11:32 10° N
USA 102 2.8 07:04:04 10° S 07:05:51 51° WSW 07:08:47 10° NNW
Cosmos 2084 Rocket 3.4 07:03:13 10° NW 07:07:04 75° NE 07:11:02 10° SE
Cosmos 2084 4.2 07:03:49 10° W 07:07:17 32° NNW 07:10:48 10° NE
Cosmos 1340 4.1 07:05:29 10° S 07:09:06 45° E 07:12:45 10° NNE
Cosmos 1937 Rocket 3.6 07:04:17 10° SSW 07:09:32 90° SSE 07:14:52 10° NNE
